Weather History for Vancouver, WA

Change the Weather History Date:

Saturday, August 17, 2013

  Actual Average Record
Temperature  
Mean Temperature 70 °F 69 °F  
Max Temperature 82 °F 82 °F 102 °F (1940)
Min Temperature 58 °F 57 °F 46 °F (1914)
Degree Days  
Heating Degree Days 0    
Month to date heating degree days 3  
Since 1 June heating degree days 68  
Since 1 July heating degree days 12  
Cooling Degree Days 5    
Month to date cooling degree days 93  
Year to date cooling degree days 297  
Since 1 June cooling degree days 285  
Growing Degree Days 20 (Base 50)    
Moisture  
Dew Point 56 °F    
Average Humidity 63    
Maximum Humidity 84    
Minimum Humidity 42    
Precipitation  
Precipitation 0.00 in 0.03 in 0.98 in (1948)
Month to date precipitation 0.04 0.32  
Year to date precipitation 15.02 21.38  
Snow  
Snow 0.00 in - - ()
Month to date snowfall 0.0  
Since 1 June snowfall 0.0  
Snow Depth 0.00 in    
Sea Level Pressure  
Sea Level Pressure 30.05 in    
Wind  
Wind Speed 3 mph (NW)    
Max Wind Speed 13 mph    
Max Gust Speed 17 mph    
Visibility 10 miles    
Events      
T = Trace of Precipitation, MM = Missing Value Source: NWS Daily Summary

Daily Weather History Graph

Daily Weather History Graph

Search for Another Location

Airport:

Trip Planner

Search our weather history database for the weather conditions in past years. The results will help you decide how hot, cold, wet, or windy it might be!

Date:

Astronomy

Aug. 17, 2013 Rise Set
Actual Time 6:13 AM PDT 8:14 PM PDT
Civil Twilight 5:41 AM PDT 8:46 PM PDT
Nautical Twilight 5:02 AM PDT 9:25 PM PDT
Astronomical Twilight 4:18 AM PDT 10:09 PM PDT
Moon 5:39 PM PDT (8/17) 2:17 AM PDT (8/17)
Length of Visible Light 15h 04m
Length of Day
14h 00m
Waxing Gibbous, 85% of the Moon is Illuminated
Aug 17
Waxing Gibbous
Aug 20
Full
Aug 28
Last Quarter
Sep 5
New
Sep 12
First Quarter

Hourly Weather History & Observations

Time (PDT) Temp. Heat Index Dew Point Humidity Pressure Visibility Wind Dir Wind Speed Gust Speed Precip Events Conditions
12:53 AM 66.9 °F - 53.1 °F 61% 30.04 in 10.0 mi NW 4.6 mph - N/A   Overcast
1:53 AM 64.0 °F - 54.0 °F 70% 30.04 in 10.0 mi Calm Calm - N/A   Scattered Clouds
2:53 AM 61.0 °F - 53.1 °F 75% 30.05 in 10.0 mi Calm Calm - N/A   Clear
3:53 AM 64.0 °F - 54.0 °F 70% 30.05 in 10.0 mi Calm Calm - N/A   Partly Cloudy
4:53 AM 59.0 °F - 53.1 °F 81% 30.05 in 10.0 mi Calm Calm - N/A   Clear
5:53 AM 61.0 °F - 55.0 °F 81% 30.06 in 10.0 mi Calm Calm - N/A   Overcast
6:53 AM 62.1 °F - 55.9 °F 80% 30.07 in 10.0 mi Calm Calm - N/A   Overcast
7:53 AM 64.9 °F - 55.9 °F 73% 30.08 in 10.0 mi Calm Calm - N/A   Partly Cloudy
8:53 AM 66.9 °F - 55.0 °F 66% 30.09 in 10.0 mi Calm Calm - N/A   Partly Cloudy
9:53 AM 69.1 °F - 55.9 °F 63% 30.09 in 10.0 mi WSW 4.6 mph - N/A   Clear
10:53 AM 70.0 °F - 55.0 °F 59% 30.09 in 10.0 mi WSW 4.6 mph - N/A   Clear
11:53 AM 73.9 °F - 54.0 °F 50% 30.08 in 10.0 mi Variable 4.6 mph - N/A   Clear
12:53 PM 75.9 °F - 55.0 °F 48% 30.06 in 10.0 mi Variable 5.8 mph - N/A   Clear
1:53 PM 79.0 °F - 55.0 °F 44% 30.06 in 10.0 mi Variable 4.6 mph - N/A   Clear
2:53 PM 80.1 °F 80.2 °F 55.9 °F 43% 30.04 in 10.0 mi NW 5.8 mph - N/A   Clear
3:53 PM 81.0 °F 80.8 °F 55.9 °F 42% 30.03 in 10.0 mi Variable 4.6 mph - N/A   Clear
4:53 PM 82.0 °F 81.7 °F 57.0 °F 42% 30.02 in 10.0 mi NW 8.1 mph 17.3 mph N/A   Clear
5:53 PM 80.1 °F 80.6 °F 57.9 °F 47% 30.02 in 10.0 mi Variable 6.9 mph - N/A   Clear
6:53 PM 77.0 °F - 57.9 °F 52% 30.02 in 10.0 mi NNW 8.1 mph 17.3 mph N/A   Clear
7:53 PM 73.9 °F - 57.9 °F 57% 30.03 in 10.0 mi North 8.1 mph - N/A   Clear
8:53 PM 72.0 °F - 55.9 °F 57% 30.04 in 10.0 mi Variable 6.9 mph - N/A   Clear
9:53 PM 70.0 °F - 57.0 °F 63% 30.05 in 10.0 mi NNW 5.8 mph - N/A   Clear
10:53 PM 68.0 °F - 57.9 °F 70% 30.06 in 10.0 mi NNW 4.6 mph - N/A   Clear
11:53 PM 66.0 °F - 57.9 °F 75% 30.08 in 10.0 mi NW 3.5 mph - N/A   Clear